Weather History for KTTD - December, 2012

Change the Weather History Date:

Saturday, December 1, 2012

  Actual Average Record
Temperature  
Mean Temperature 50 °F 42 °F  
Max Temperature 56 °F 47 °F 58 °F (1980)
Min Temperature 44 °F 36 °F 13 °F (1985)
Degree Days  
Heating Degree Days 15 24  
Month to date heating degree days 15 24  
Cooling Degree Days 0 0  
Month to date cooling degree days 0 0  
Moisture  
Dew Point 44 °F    
Average Humidity 76    
Maximum Humidity 93    
Minimum Humidity 59    
Precipitation  
Precipitation 0.00 in 0.24 in 1.08 in (1994)
Month to date precipitation 0.24  
Year to date precipitation 43.38 40.04  
Snow  
Snow 0.00 in - - ()
Snow Depth 0.00 in    
Sea Level Pressure  
Sea Level Pressure 29.59 in    
Wind  
Wind Speed 8 mph (SE)    
Max Wind Speed 25 mph    
Max Gust Speed 40 mph    
Visibility 10 miles    
Events Rain    
T = Trace of Precipitation, MM = Missing Value Source: NWS Daily Summary

Daily Weather History Graph

Daily Weather History Graph

Search for Another Location

Airport or City:

Trip Planner

Search our weather history database for the weather conditions in past years. The results will help you decide how hot, cold, wet, or windy it might be!

Date:

Astronomy

Dec. 01, 2012 Rise Set
Actual Time 7:30 AM PST 4:27 PM PST
Civil Twilight 6:56 AM PST 5:01 PM PST
Nautical Twilight 6:19 AM PST 5:38 PM PST
Astronomical Twilight 5:43 AM PST 6:13 PM PST
Moon 7:25 PM PST (12/1) 9:44 AM PST (12/1)
Length of Visible Light 10h 04m
Length of Day
8h 57m
Waning Gibbous, 91% of the Moon is Illuminated
Dec 1
Waning Gibbous
Dec 6
Last Quarter
Dec 13
New
Dec 19
First Quarter
Dec 28
Full

Hourly Weather History & Observations

Time (PST) Temp. Windchill Dew Point Humidity Pressure Visibility Wind Dir Wind Speed Gust Speed Precip Events Conditions
12:53 AM 52.0 °F - 46.0 °F 80% 29.52 in 5.0 mi South 15.0 mph 32.2 mph N/A Rain Heavy Rain
1:53 AM 52.0 °F - 44.1 °F 74% 29.52 in 10.0 mi South 15.0 mph 19.6 mph N/A   Scattered Clouds
2:53 AM 51.1 °F - 45.0 °F 80% 29.55 in 10.0 mi South 8.1 mph - N/A   Overcast
4:53 AM 51.1 °F - 44.1 °F 77% 29.63 in 10.0 mi South 5.8 mph - N/A Rain Light Rain
5:53 AM 48.0 °F - 42.1 °F 80% 29.68 in 10.0 mi South 4.6 mph - N/A   Scattered Clouds
7:53 AM 45.0 °F 41.2 °F 41.0 °F 86% 29.72 in 10.0 mi East 6.9 mph - N/A   Mostly Cloudy
9:53 AM 53.1 °F - 43.0 °F 69% 29.74 in 10.0 mi South 10.4 mph - N/A   Mostly Cloudy
10:53 AM 53.1 °F - 42.1 °F 66% 29.74 in 10.0 mi South 12.7 mph 16.1 mph N/A   Mostly Cloudy
11:53 AM 55.0 °F - 42.1 °F 62% 29.72 in 10.0 mi South 9.2 mph - N/A   Overcast
12:53 PM 55.0 °F - 41.0 °F 59% 29.70 in 10.0 mi South 5.8 mph - N/A   Clear
1:53 PM 54.0 °F - 41.0 °F 62% 29.67 in 10.0 mi SSE 4.6 mph - N/A   Overcast
3:53 PM 53.1 °F - 43.0 °F 69% 29.65 in 10.0 mi SSE 3.5 mph - N/A   Overcast
4:53 PM 52.0 °F - 43.0 °F 71% 29.61 in 10.0 mi ESE 4.6 mph - N/A   Overcast
5:53 PM 50.0 °F - 44.1 °F 80% 29.58 in 10.0 mi ESE 4.6 mph - N/A Rain Light Rain
6:53 PM 48.9 °F - 45.0 °F 86% 29.57 in 10.0 mi ESE 9.2 mph - N/A Rain Light Rain
7:53 PM 48.0 °F - 45.0 °F 89% 29.51 in 10.0 mi East 5.8 mph - N/A Rain Light Rain
8:53 PM 48.9 °F - 45.0 °F 86% 29.51 in 10.0 mi ESE 6.9 mph - N/A Rain Light Rain
9:53 PM 48.0 °F - 45.0 °F 89% 29.45 in 10.0 mi East 10.4 mph - N/A Rain Light Rain
10:53 PM 48.0 °F - 45.0 °F 89% 29.40 in 9.0 mi East 12.7 mph - N/A Rain Light Rain
11:53 PM 48.0 °F - 44.1 °F 86% 29.33 in 7.0 mi East 13.8 mph 21.9 mph N/A Rain Rain